Location: *
(45.9500°N, 9.0833°E)
Time: 05:47:32
(UTC+00:00)

SR - Pass Details

Date: 19 June 2021
Orbit: 577 x 878 km, 66.7° (Epoch: 24 July)

Event Time Altitude Azimuth Distance (km) Brightness Sun altitude
Rises 22:34:27 0° 331° (NNW) 3,367 ? -19.7°
Reaches altitude 10° 22:37:50 10° 350° (N) 2,377 ? -19.8°
Maximum altitude 22:41:26 18° 32° (NNE) 1,833 ? -19.9°
Drops below altitude 10° 22:44:52 10° 74° (ENE) 2,237 ? -20.0°
Sets 22:47:54 0° 94° (E) 3,091 ? -20.1°
